Preview of NWS' New Version of Forecast
This preview is not operational and should not be used for support decisions.

Regional Weather Roundup (RWR)

Issued by Columbia, SC (CAE)

                            
000
ASUS42 KCAE 170510
RWRCAE
REGIONAL WEATHER ROUNDUP
NATIONAL WEATHER SERVICE COLUMBIA SC
1200 AM EST MON DEC 17 2018

NOTE: "FAIR" INDICATES FEW OR NO CLOUDS BELOW 12,000 FEET WITH NO
SIGNIFICANT WEATHER AND/OR OBSTRUCTIONS TO VISIBILITY.

NOT ALL STATIONS ARE QUALITY CONTROLLED BY THE NATIONAL 
WEATHER SERVICE. USE DATA WITH CAUTION...ESPECIALLY 
DEWPOINT OBSERVATIONS.

SCZ001>056-GAZ040-063>065-077-170600-
...UPSTATE SOUTH CAROLINA...
  
CITY           SKY/WX    TMP DP  RH WIND       PRES   REMARKS
ANDERSON       FAIR      44  41  89 NW5       30.09S                  
LIBERTY        FAIR      36  36 100 CALM      30.08R                  
SPARTANBURG    FAIR      46  37  71 W7        30.06S                  
CLEMSON        FAIR      45  40  82 W5        30.09S                  
GREENVILLE     FAIR      48  41  76 N6        30.09R                  
GREENWOOD      FAIR      44  42  93 NW3       30.09S                  
GREER          FAIR      50  40  68 NW5       30.08R                  
ROCK HILL      FAIR      39  38  96 CALM      30.05S                  
CHESTER        FAIR      41  39  93 W5        30.07R                  
LAURENS        FAIR      37  37 100 CALM      30.08R                  


...CENTRAL SOUTH CAROLINA...
  
CITY           SKY/WX    TMP DP  RH WIND       PRES   REMARKS
COLUMBIA APT   FAIR      42  42 100 W7        30.06S                  
COLUMBIA OWENS FAIR      44  41  89 CALM      30.07S                  
MCENTIRE ANGB  FAIR      42  42 100 NW5         N/A                   
ORANGEBURG     FAIR      47  43  86 W3        30.06F                  
SUMTER SHAW    FAIR      47  44  89 W8        30.03F                  
NEWBERRY       FAIR      41  41 100 NW5       30.10R                  
AIKEN          FAIR      41  41 100 W3        30.10S                  
BARNWELL       FAIR      45  45 100 CALM      30.08F                  
MANNING        FAIR      46  45  93 CALM      30.05F                  
CAMDEN         FAIR      39  39 100 CALM      30.06S                  
WINNSBORO      FAIR      43  43 100 NW5       30.05S                  


...EASTERN AND COASTAL SOUTH CAROLINA...
  
CITY           SKY/WX    TMP DP  RH WIND       PRES   REMARKS
MYRTLE BEACH   FAIR      51  46  83 W10       30.03S                  
N MYRTLE BCH   FAIR      50  46  86 W5        30.01S                  
CONWAY         FAIR      45  45 100 CALM      30.03S                  
MARION         FAIR      46  43  87 W5        30.03S                  
HARTSVILLE     FAIR      41  41 100 CALM      30.04R                  
FLORENCE       FAIR      49  44  83 NW6       30.04S                  
DARLINGTON     FAIR      43  42  97 W3        30.05S                  
CHARLESTON APT FAIR      47  45  93 W7        30.05F                  
MOUNT PLEASANT FAIR      48  46  93 W6        30.05F                  
WALTERBORO     FAIR      45  43  93 CALM      30.08S                  
BEAUFORT       FAIR      49  46  90 W8        30.08                   
HILTON HEAD    FAIR      50  46  87 W6        30.09F                  


...EASTERN GEORGIA...
  
CITY           SKY/WX    TMP DP  RH WIND       PRES   REMARKS
AUGUSTA BUSH F FAIR      42  40  92 W3        30.09S                  
AUGUSTA DANIEL FAIR      48  42  80 NW8       30.08F                  
THOMSON        FAIR      44  42  95 N5        30.15R                  
CLAXTON          N/A     46  46  97 CALM      30.10S                  
SYLVANIA       FAIR      44  43  99 NW5       30.10S                  
STATESBORO     FAIR      45  44  96 CALM      30.09F                  
SAVANNAH       FAIR      45  44  97 W6        30.10F                  


...SOUTHERN NORTH CAROLINA...
  
CITY           SKY/WX    TMP DP  RH WIND       PRES   REMARKS
CHARLOTTE      FAIR      43  39  86 NW5       30.05S                  
MONROE         FAIR      46  38  73 W3        30.03F                  
WADESBORO      FAIR      45  40  83 W3        30.03F                  
ROCKINGHAM     FAIR      45  44  97 CALM      30.03S                  
RUTHERFORDTON  FAIR      39  39 100 CALM      30.06F                  
ASHEVILLE      CLOUDY    44  40  85 NW13      30.11R                  

$$